TimeCET,TemperatureF,Dew PointF,Humidity,Sea Level PressureIn,VisibilityMPH,Wind Direction,Wind SpeedMPH,Gust SpeedMPH,PrecipitationIn,Events,Conditions,WindDirDegrees,DateUTC
12:55 AM,21.2,19.4,93,29.12,-9999.0,North,43.7,-,N/A,Fog,Light Freezing Fog,10,2013-02-02 23:55:00
1:00 AM,21,20,96,,0,North,43.7,,,Snow,Snow,10,2013-02-03 00:00:00
1:55 AM,21.2,19.4,93,29.12,-9999.0,North,41.4,-,N/A,Fog,Light Freezing Fog,10,2013-02-03 00:55:00
2:55 AM,21.2,19.4,93,29.18,-9999.0,North,43.7,-,N/A,Fog,Light Freezing Fog,10,2013-02-03 01:55:00
3:55 AM,21.2,19.4,93,29.18,-9999.0,North,48.3,-,N/A,Fog,Light Freezing Fog,10,2013-02-03 02:55:00
4:55 AM,21.2,19.4,93,29.21,-9999.0,North,46.0,-,N/A,Fog,Light Freezing Fog,10,2013-02-03 03:55:00
5:55 AM,21.2,19.4,93,29.27,-9999.0,North,51.8,-,N/A,Fog,Light Freezing Fog,10,2013-02-03 04:55:00
6:55 AM,21.2,19.4,93,29.36,-9999.0,North,58.7,-,N/A,Fog,Light Freezing Fog,10,2013-02-03 05:55:00
7:00 AM,21,19,91,,0,North,58.7,,,Snow,Light Snow,10,2013-02-03 06:00:00
7:55 AM,21.2,19.4,93,29.39,-9999.0,North,64.4,-,N/A,Fog,Fog,10,2013-02-03 06:55:00
8:55 AM,19.4,17.6,93,29.44,-9999.0,North,52.9,-,N/A,Fog,Light Freezing Fog,10,2013-02-03 07:55:00
9:55 AM,19.4,17.6,93,29.50,0.0,North,46.0,-,N/A,Fog,Light Freezing Fog,10,2013-02-03 08:55:00
11:55 AM,19.4,19.4,100,29.59,0.0,North,29.9,-,N/A,Fog,Light Freezing Fog,10,2013-02-03 10:55:00
12:55 PM,21.2,19.4,93,29.62,0.0,North,25.3,-,N/A,Fog,Light Freezing Fog,10,2013-02-03 11:55:00
1:00 PM,20,20,100,,0,North,25.3,,,Fog,Heavy Fog,10,2013-02-03 12:00:00
1:55 PM,19.4,19.4,100,29.62,0.1,North,29.9,-,N/A,Fog,Light Freezing Fog,10,2013-02-03 12:55:00
2:55 PM,19.4,17.6,93,29.65,0.1,North,32.2,-,N/A,Fog,Light Freezing Fog,10,2013-02-03 13:55:00
3:55 PM,21.2,19.4,93,29.68,0.0,North,29.9,-,N/A,Fog,Light Freezing Fog,10,2013-02-03 14:55:00
4:55 PM,19.4,15.8,86,29.68,6.2,North,32.2,-,N/A,,Scattered Clouds,10,2013-02-03 15:55:00
5:55 PM,19.4,14.0,80,29.74,6.2,North,29.9,-,N/A,,Scattered Clouds,350,2013-02-03 16:55:00
6:55 PM,19.4,15.8,86,29.77,6.2,North,23.0,-,N/A,,Scattered Clouds,350,2013-02-03 17:55:00
7:00 PM,19,16,81,,6,North,23.0,,,,Partly Cloudy,350,2013-02-03 18:00:00
7:55 PM,19.4,15.8,86,29.83,-9999.0,North,18.4,-,N/A,,Clear,350,2013-02-03 18:55:00
8:55 PM,19.4,15.8,86,29.83,-9999.0,North,20.7,-,N/A,,Clear,10,2013-02-03 19:55:00
9:55 PM,19.4,14.0,80,29.86,-9999.0,North,13.8,-,N/A,,Clear,10,2013-02-03 20:55:00
10:55 PM,19.4,14.0,80,29.86,-9999.0,North,9.2,-,N/A,,Clear,10,2013-02-03 21:55:00
11:55 PM,19.4,14.0,80,29.86,-9999.0,North,5.8,-,N/A,,Clear,10,2013-02-03 22:55:00